User: anonymous   Login
Location: Saddleback Butte
(34.6776°N, 117.8050°W)
Time: 11:09:11
(UTC-07:00)
Language:

Cosmos 1862 Rocket - Orbit

View from above orbital plane
View from above orbital plane
View from above satellite
View from above satellite

Ground track
Ground track

The orbit data is extracted from the following two-line orbital elements,

1 18153U 87055B   15243.42547914  .00000201  00000-0  21593-4 0  9991
2 18153 082.5028 000.0699 0023232 084.0959 276.2903 14.83003576521167
Epoch (UTC): 31 August 2015 10:12:41
Eccentricity: 0.0023232
inclination: 82.5028°
perigee height: 603 km
apogee height: 636 km
right ascension of ascending node: 0.0699°
argument of perigee: 84.0959°
revolutions per day: 14.83003576
mean anomaly at epoch: 276.2903°
orbit number at epoch: 52116

The dashed part of the orbit path shows where the satellite is in the earth's shadow,  

DLR